Regional Weather Roundup
Issued by NWS Little Rock, AR

Home | Current Version | Previous Version | Graphics & Text | Print | Product List | Glossary On
Versions: 1 2 3 4 5 6 7 8 9 10 11 12 13 14 15 16 17 18 19 20 21 22 23 24 25 26 27 28 29 30 31 32 33 34 35 36 37 38 39 40 41 42 43 44 45 46 47 48 49
000
ASUS44 KLZK 291005
RWRLZK

WEATHER ROUNDUP FOR ARKANSAS
NATIONAL WEATHER SERVICE LITTLE ROCK AR
500 AM CDT FRI MAY 29 2015

NOTE: "FAIR" INDICATES FEW OR NO CLOUDS BELOW 12,000 FEET WITH NO
SIGNIFICANT WEATHER AND/OR OBSTRUCTIONS TO VISIBILITY.

ARZ001-003-010-029-291100-
NORTHWEST ARKANSAS

CITY           SKY/WX    TMP DP  RH WIND       PRES   REMARKS
FAYETTEVILLE   CLOUDY    67  65  93 S7        29.99R
FORT SMITH     CLOUDY    68  64  87 E7        29.97R
HARRISON       PTCLDY    64  61  90 SE7       30.01R
BENTONVILLE    PTCLDY    66  61  82 S7        29.99R
ROGERS         MOCLDY    66  62  87 SE9       30.00R
SILOAM SPGS    CLOUDY    68  61  77 SW8       30.01R
HIGHFILL       CLOUDY    69  64  84 S8        29.98R
$$

ARZ004-005-016-291100-
NORTH CENTRAL ARKANSAS

CITY           SKY/WX    TMP DP  RH WIND       PRES   REMARKS
BATESVILLE     MOCLDY    68  64  88 CALM      30.01R
FLIPPIN        PTCLDY    64  61  88 CALM      29.99R
MTN HOME       PTCLDY    65  61  87 S6        30.00S
$$

ARZ040-041-291100-
WEST CENTRAL ARKANSAS

CITY           SKY/WX    TMP DP  RH WIND       PRES   REMARKS
MENA           CLOUDY    70  68  94 CALM      29.99F
MOUNT IDA      MOCLDY    68  65  90 SE3       29.97F
$$

ARZ009-017-025-026-028-291100-
NORTHEAST ARKANSAS

CITY           SKY/WX    TMP DP  RH WIND       PRES   REMARKS
CORNING        FAIR      68  68 100 S3        30.02S
JONESBORO      CLOUDY    66  66 100 CALM      30.01S
NEWPORT        CLOUDY    68  68 100 CALM      30.03R
WALNUT RIDGE   CLOUDY    68  64  88 SE5       30.01F
BLYTHEVILLE    PTCLDY    68  67  96 S3        30.03R
$$

ARZ022-023-033-042-044-291100-
CENTRAL ARKANSAS

CITY           SKY/WX    TMP DP  RH WIND       PRES   REMARKS
LITTLE ROCK    CLOUDY    68  64  87 CALM      30.00F
N LITTLE ROCK    N/A     66  66 100 CALM      30.00F
JACKSONVILLE   CLOUDY    64  64  99 CALM      30.00F
SEARCY         CLOUDY    65  65 100 CALM      30.02S
HOT SPRINGS    CLOUDY    69  66  90 E5        30.00S
RUSSELLVILLE   PTCLDY    67  66  97 CALM      29.99R
CLINTON        CLOUDY    63  63 100 CALM      30.03R
$$

ARZ036-291100-
EAST ARKANSAS

CITY           SKY/WX    TMP DP  RH WIND       PRES   REMARKS
WEST MEMPHIS   MOCLDY    68  68 100 S5        30.01R
$$

ARZ050-053-066-070-073-291100-
SOUTHWEST ARKANSAS

CITY           SKY/WX    TMP DP  RH WIND       PRES   REMARKS
ARKADELPHIA    FAIR      67  67 100 NE3       30.00S
CAMDEN         FOG       64  63  94 CALM      29.99R VSB 1
TEXARKANA      MOCLDY    67  67 100 CALM      29.98S FOG
EL DORADO      MOCLDY    67  65  93 CALM      29.99R
DE QUEEN       CLOUDY    68  66  93 E17       29.96S
$$

ARZ056-057-069-291100-
SOUTHEAST ARKANSAS

CITY           SKY/WX    TMP DP  RH WIND       PRES   REMARKS
PINE BLUFF     CLOUDY    67  66  97 CALM      30.00R
STUTTGART      MOCLDY    70  66  88 E3        30.01S
MONTICELLO     PTCLDY    70  69  97 SE3       30.00R

$$




USA.gov is the U.S. government's official web portal to all federal, state and local government web resources and services.